Persoonlijke zone
Imprimable
Brussels, 19/10/2019, BEL - Adecco Brussels Ekiden
Rapportenlijst > Ekiden - Resultaat
Zoek: Bladzijde: [1] 2 3
1003 Inputs
 
Klachten worden niet meer geaccepteerd. Resultaten zijn definitief.
Categorie
PosNrNaamLeef.ClubTijdTkmGem.PlaatsNaamGemeente
1.107SAUCONY 2:11:113:07 19.301am
2.167CABW HOMMES 1 CABW2:16:343:15 18.541cm
3.134HERV AC - TEAM A HERV AC2:17:033:15 18.472cm
4.118TEAM VANDEWATTIJNE ACG2:23:353:25 17.633cm
5.146DUFFEL ATLETIEKCLUB MANNE DUFF2:23:543:25 17.594cm
6.180AVMO HEREN 1 AVMO2:24:453:26 17.495cm
7.133HERV AC - TEAM B HERV AC2:25:273:27 17.416cm
8.157CABW HOMMES 2 CABW2:26:193:29 17.307cm
9.124ADD GUYS ADD - ATLETIEKC2:26:513:29 17.248cm
10.128SMARTRUNNINGTEAM VOLH2:26:543:29 17.249cm
11.112ACP SEN ACP2:27:083:30 17.2110cm
12.171AVR HEREN 1 AVR2:27:403:30 17.1511cm
13.117ARCH ARCH2:27:563:31 17.1112cm
14.873NMBS HR RAIL LOCOMOTIEF NMBS HR RAIL LO2:27:573:31 17.111bm
15.160XAVT AVT2:30:443:35 16.801cx
16.123ROBA TURTLES ROBA2:31:233:36 16.7213cm
17.103FYELLOW ARMADA LADIES 2:31:403:36 16.691af
18.151CSDY WHITE KENYANS CS DYLE2:31:483:36 16.6814cm
19.839XF-SPORT 2:31:553:37 16.671ax
20.131HAUTES FAGNES HOMMES HAUTES FAGNES2:33:213:39 16.5115cm
21.141AC PEGASUS MANNEN ATLETIEK CLUB P2:34:323:40 16.3816cm
22.761BORN TO RUN A SPRL BORN TO RU2:35:053:41 16.332bm
23.114ACP MASTERS ACP2:35:433:42 16.2617cm
24.809PFIZER_FAST PFIZER2:36:413:43 16.163bm
25.173CS DYLE TEAM PATATE CS DYLE2:36:583:44 16.1318cm
26.165BEERSCHOT BEERSCHOT2:37:363:45 16.0719cm
27.853JC OETINGEN 2:38:093:45 16.012am
28.116SQUADRA PETRALIA GIOVANIL AVMO2:38:123:45 16.0020cm
29.144CABW HOMMES 3 CABW2:38:283:46 15.9821cm
30.831XFAST RUNNING CRIMINALS 2:40:253:49 15.782ax
31.132XHERV AC - TEAM C HERV AC2:41:493:51 15.652cx
32.179XKONINKLIJKE LEBBEEKSE ATL KONINKLIJKE LEB2:42:263:51 15.593cx
33.162FCABW DAMES 1 CABW2:43:533:54 15.451cf
34.665NMBS HR RAIL INTERCITY MBS HR RAIL2:44:143:54 15.424bm
35.170FAVR DAMES 1 AVR2:44:333:54 15.392cf
36.119XVOLHARDING TEAM 1 VOLHARDING2:45:233:56 15.314cx
37.178FDCLA DAMES 1 DARING CLUB LEU2:45:343:56 15.293cf
38.125XADD MIX ADD - ATLETIEKC2:46:043:57 15.255cx
39.842GAG 2:47:043:58 15.153am
40.505CENTRICA BUSINESS SOLUTIO CENTRICA BUSINE2:47:123:58 15.145bm
41.158AVR HEREN 2 AVR2:47:393:59 15.1022cm
42.159RCB - CA VA D'ALLER, FIEU 2:47:483:59 15.094am
43.773UCB CLUB - DREAM TEAM UCB PHARMA2:47:503:59 15.086bm
44.172FAS RIEME VROUWENTEAM AS RIEME2:48:404:00 15.014cf
45.138XDAC TEAM 1 DAC2:48:574:01 14.996cx
46.485KBC TRIPLE A KBC2:49:184:01 14.957bm
47.714OMP 5 OMP2:49:204:01 14.958bm
48.212ADECCO -TEAM 3M-1 ADECCO2:49:444:02 14.929bm
49.614ICSENSE1 ICSENSE2:50:264:03 14.8610bm
50.127RUN FOR RESC BOYS RESC2:50:404:03 14.8323cm
51.156ATLEMO2 2:50:554:04 14.8124cm
52.161FACG CHICKIES ACG2:50:574:04 14.815cf
53.799VPK RACING VPK PAPER2:51:524:05 14.7311bm
54.718XORTEC BELGIUM A ORTEC2:52:474:06 14.651bx
55.168XAVR DAMES 2 AVR2:52:504:06 14.657cx
56.866MASPOE RUNNING TEAM MANNE 2:52:534:06 14.645am
57.149DUFFEL ATLETIEKCLUB RAF T 2:53:324:07 14.5925cm
58.522COLRUYT GROUP TEAM CSB 2:54:134:08 14.536am
59.728PESSEMIER TRANSPORT PESSEMIER NV2:54:534:09 14.4812bm
60.135XDAC TEAM 2 DAC2:55:104:10 14.458cx
61.857JUST DO IT 2:55:284:10 14.437am
62.181FROBA ROBA2:55:364:10 14.426cf
63.1089EASYWOOD RUNNERS 2:56:004:11 14.398am
64.762XBORN TO RUN B SPRL BORN TO RU2:56:064:11 14.382bx
65.1032XTEAM 1 MATERIALISE2:57:004:12 14.303bx
66.166WAASMUNSTER LOOPT 2:57:214:13 14.289am
67.169FCSDYLE TEAM GAZELLES CSDYLE2:57:214:13 14.287cf
68.143XAC DUFFEL A.C. DUFFEL2:57:394:13 14.259cx
69.868FMASPOE RUNNING TEAM VROUW 2:58:264:14 14.192af
70.115XACP MIX 2 ACP MIX 22:58:554:15 14.1510cx
71.304XEU TEAM GEH REGIO FLYING 2:59:284:16 14.113ax
72.121XACP MIX 1 3:00:314:17 14.0311cx
73.147FDUFFEL ATLETIEKCLUB VROUW DUFF3:01:164:18 13.978cf
74.648KARTESIA KARTESIA3:01:294:19 13.9513bm
75.258XSKEYES 1 SKEYES3:01:514:19 13.924bx
76.1100XTEAM SPORTHUIS NOKERE 3:02:224:20 13.884ax
77.526COLRUYT GROUP THE MOJO’S COLRUYT GROUP S3:02:334:20 13.8714bm
78.137XDAC TEAM 3 DAC3:02:424:20 13.8612cx
79.1092ELIA 2 3:04:054:22 13.7510am
80.686XNATO DREAM TEAM NATO3:04:144:22 13.745bx
81.844XH3O FAST 3:04:214:23 13.735ax
82.175FAC HAMME DAMESTEAM AC HAMMA3:04:454:23 13.709cf
83.397BNP PARIBAS FORTIS BNP PARIBAS FOR3:04:544:23 13.6915bm
84.154XRCB CRABES ELITES 3:05:004:24 13.686ax
85.316XEU TEAM GEH – THE MOVERS 3:05:084:24 13.687ax
86.660LOBI LOBI3:05:264:24 13.6516bm
87.246XSMART SPORT CLUB (BLAUW T 3:05:434:25 13.638ax
88.1093ELIA 3 3:05:584:25 13.6111am
89.833XFLY RUNNING CRIMINALS 3:06:074:25 13.609ax
90.130FHAUTES FAGNES DAMES HAUTES FAGNES3:06:544:26 13.5510cf
91.663XMACOBO-STABO MACOBO-STABO3:07:524:28 13.486bx
92.245XSMART SPORT CLUB - THE WH 3:09:254:30 13.3710ax
93.240STO FRANCE STO SAS3:09:304:30 13.3617bm
94.105XNTT BELGIUM FAST TEAM NTT BELGIUM3:09:354:30 13.357bx
95.209SPRING ADECCO3:09:384:30 13.3518bm
96.356XAIR LIQUIDE READY AND FI AIR LIQUIDE3:09:424:30 13.358bx
97.155XATLEMO 3:09:434:30 13.3513cx
98.186XADECCO_VAN MARCKE 1 ADECCO3:10:064:31 13.329bx
99.902XDELOITTE CYBER BLACK 3:10:284:31 13.2910bx
100.919XTHE ING BULLETS 3:10:414:32 13.2811bx
101.926ORANGE TURTLES 3.0 3:10:594:32 13.2619bm
102.174XARAC ARAC3:11:204:33 13.2314cx
103.538CULIRUNNERS CULINOR3:11:214:33 13.2320bm
104.838XFREAKY RUNNING CRIMINALS 3:11:414:33 13.2111ax
105.840XFUN RUNNING CRIMINALS 3:11:524:33 13.2012ax
106.142XRCB CBG 3:12:194:34 13.1613ax
107.1091ELIA 1 3:12:404:34 13.1412am
108.867XMASPOE RUNNING TEAM MIX 3:12:534:35 13.1314ax
109.798VPK HQ VPK PAPER3:13:124:35 13.1021bm
110.744SIEMENS ITS SIEMENS3:13:234:35 13.0922bm
111.960XING WAPI FAST 3:13:284:36 13.0912bx
112.150XBEERSCHOT 2 3:13:404:36 13.0715ax
113.1069X#POLISHRUN 3:14:054:36 13.0516ax
114.841XFURIOUS RUNNING CRIMINALS 3:14:284:37 13.0217ax
115.250XSMART SPORT CLUB (ROZE TE 3:14:314:37 13.0218ax
116.140FAC PEGASUS VROUWEN ATLETIEK CLUB P3:14:414:37 13.0011cf
117.1057WAVENET WAVENET3:14:454:37 13.0023bm
118.1016XCM ZORG CHRISTELIJKE MU3:14:534:38 12.9913bx
119.908XING INVESTMENTS 3:14:564:38 12.9914bx
120.685PR UNITED NATIONALE BANK 3:15:004:38 12.9824bm
121.871XMINOR-NDAKO SPORT 3:15:094:38 12.9719ax
122.765STEF SAINTES STEF TRANSPORT 3:15:114:38 12.9725bm
123.1129SOPRA STERIA 2 SOPRA STERIA3:15:294:38 12.9526bm
124.576EMERSON SPIKES EMERSON PROCESS3:17:214:41 12.8327bm
125.220ADECCO_DON(U)'T WALK ADECCO3:17:344:41 12.8128bm
126.248XSMART SPORT CLUB (GROENE 3:17:364:41 12.8120ax
127.520XCOLRUYT GROUP R&D&I 3:18:004:42 12.7921ax
128.419CANDRIAM - TEAM 3 CANDRIAM3:18:004:42 12.7929bm
129.854JRC-GEEL COMPET 3:18:064:42 12.7813am
130.284XEU TEAM GEH – COMP_A_CERS 3:18:164:42 12.7722ax
131.247XSMART SPORT CLUB (GELE TE 3:18:214:43 12.7623ax
132.424HEIDELBERGCEMENT - LES BÉ CBR3:18:464:43 12.7430bm
133.554XAMBIENTE DEPARTEMENT OMG3:18:504:43 12.7315bx
134.1014CM REFAC CHRISTELIJKE MU3:19:134:44 12.7131bm
135.1052XD.A.S. BRUXELLES DAS3:19:144:44 12.7116bx
136.503XCENTRAN CENTRAN3:19:164:44 12.7117bx
137.715ALL YOU NEED IS RUN ORANGE BELGIUM3:19:254:44 12.7032bm
138.204ADECCO_TEAM RENEWI ADECCO3:19:344:44 12.6933bm
139.1094XELIA 4 3:19:364:44 12.6824ax
140.530XCORONA DIRECT CORONA DIRECT3:19:404:44 12.6818bx
141.747XSIEMENS SI ROADRUNNERS SIEMENS3:19:484:45 12.6719bx
142.996XRUN, WOUTER, RUN! 3:20:154:45 12.6425ax
143.731XPIDPA - COOL RUNNINGS PIDPA3:20:244:45 12.6320bx
144.136XDAC TEAM 4 DAC3:20:264:45 12.6315cx
145.846XHEILIG HART LEUVEN 3:20:314:46 12.6326ax
146.249XSMART SPORT CLUB (RODE TE 3:20:354:46 12.6227ax
147.404XBOUWPUNT VAN DER GUCHT 1 BOUWPUNT VAN DE3:20:594:46 12.6021bx
148.872XNEEPEEJEES 3:21:044:46 12.5928ax
149.935SIX AND THE CITY 3:21:044:46 12.5934bm
150.283XEU TEAM GEH – COMP LAZY F 3:21:174:47 12.5829ax
151.849XINBIO 3:21:234:47 12.5730ax
152.423CAPGEMINI 3 CAPGEMINI BELGI3:21:254:47 12.5735bm
153.701NUMECA 4 NUMECA INTERNAT3:21:314:47 12.5636bm
154.279XEU TEAM GEH – COMP (FAST? 3:21:374:47 12.5631ax
155.548XDP-FIN DEGROOF PETERCA3:21:414:47 12.5522bx
156.1039XNPE FEDEX EXPRESS3:21:434:47 12.5523bx
157.767TRASIS TEAM TRASIS3:21:484:47 12.5537bm
158.1036EXCEL-ERATORS FEDEX EXPRESS3:21:594:48 12.5338bm
159.524COLRUYT GROUP FINE FOOD T COLRUYT GROUP3:22:124:48 12.5239bm
160.763XBORN TO RUN C SPRL BORN TO RU3:22:134:48 12.5224bx
161.409XBE-LB-AUTO BRUXELLES ENVIR3:22:264:48 12.5125bx
162.688XNELSONRUNNERS - LIMBO LIM NELSON LABS NV3:22:344:49 12.5026bx
163.251XSMART SPORT CLUB (ZWARTE 3:22:474:49 12.4932ax
164.676XWE MO>E YOU MERCEDES-BENZ B3:23:004:49 12.4727bx
165.801FOCUS SUPPORT PFIZER3:23:064:49 12.4740bm
166.700XNUMECA 3 NUMECA INTERNAT3:23:154:50 12.4628bx
167.387XBAM TK SNEL BAM CONTRACTORS3:23:184:50 12.4529bx
168.850XINSURANCE EUROPE 3:23:214:50 12.4533ax
169.578XTEAM ENGIE AXIMA 2 ENGIE AXIMA3:23:354:50 12.4430bx
170.878PINO 3:23:404:50 12.4314am
171.177XYESS WE CAN VAC3:23:554:50 12.4216cx
172.294XEU TEAM GEH – HR CAB RUNN 3:23:554:50 12.4234ax
173.461KBC THE MO'S KBC3:23:584:51 12.4141bm
174.394XBEEFAST BIOBEST GROUP N3:24:074:51 12.4031bx
175.1112WE ARE SPARTA@1 3:24:144:51 12.4015am
176.736PYTHON PREDICTIONS PYTHON PREDICTI3:24:154:51 12.4042bm
177.907ING RÉGION CENTRE 3:24:254:51 12.3943bm
178.724THE RUNNING MACHINES P&V ASSURANCES 3:24:294:51 12.3844bm
179.1074XANTIGIFCENTRUM 3:24:394:51 12.3735ax
180.226XEY PARIS MARATHON RUNNERS 3:24:454:52 12.3636ax
181.348XVLAIO TEAM 1 AGENTSCHAP INNO3:25:204:52 12.3332bx
182.384AVERY DENNISON TEAM AVERY DENNISON3:25:244:53 12.3345bm
183.845XH3O ON THE RUN 3:25:264:53 12.3237ax
184.575XEMERSON SPARKS EMERSON PROCESS3:25:274:53 12.3233bx
185.807XPFIZER EOS PFIZER MANUFACT3:25:344:53 12.3234bx
186.877XOKKE ELZENHOF 3:25:404:53 12.3138ax
187.970XING - GO DAS 3:25:444:53 12.3135bx
188.535XCREDENDO UAM CREDENDO3:25:524:53 12.3036bx
189.388XDE "FIEREH" LOPERS BAM CONTRACTORS3:26:004:53 12.2937bx
190.882XPWC 3 3:26:124:54 12.2839ax
191.847HSBC BELGIUM 3:26:194:54 12.2716am
192.687XNELSONRUNNERS - AFGEVINKT NELSON LABS NV3:26:274:54 12.2638bx
193.349VLAIO TEAM 2 AGENTSCHAP INNO3:26:304:54 12.2646bm
194.703XOIP 1 OIP NV3:26:324:54 12.2639bx
195.456KBC TREASURY LIGHT KBC3:26:364:54 12.2547bm
196.241XSTO LOTUSAN STO NV3:26:504:55 12.2440bx
197.569ECOPHOS 2 ECOPHOS3:26:534:55 12.2448bm
198.955XTHE FLYING BANKERS 3:26:544:55 12.2441bx
199.815XZAVENTEM RUNNERS PFIZER3:27:004:55 12.2342bx
200.317XEU TEAM GEH – THE SPILLOV 3:27:094:55 12.2240ax
201.287XEU TEAM GEH – CYBER RUNNI 3:27:504:56 12.1841ax
202.1083XCG RUNNIMODOS 3:27:504:56 12.1842ax
203.870XMINOR-NDAKO LEUVEN 3:27:504:56 12.1843ax
204.739DUTCH RUNAULT RUNNERS RENAULT BELGIE 3:27:584:56 12.1749bm
205.301XEU TEAM GEH - NEW GENERAT 3:28:174:57 12.1644ax
206.344XDE SLOEFKES ACTISOC - BPOST3:28:204:57 12.1543bx
207.264XDPB2 BANK J. VAN BRE3:28:234:57 12.1544bx
208.266XJVB 6 BANK J. VAN BRE3:28:234:57 12.1545bx
209.541XDATA MINDED RUNNING AT SC DATA MINDED3:28:324:57 12.1446bx
210.303XEU TEAM GEH - RATPACK RUN 3:28:364:57 12.1445ax
211.571HERMES ECS SA TEAM FAST ECS HERMÈS SA3:28:374:57 12.1450bm
212.325XEU TEAM GEH FUNRUN 3:28:394:57 12.1346ax
213.379XATTENTIA 1 ATTENTIA NV3:28:424:57 12.1347bx
214.532XCREDENDO LCL CREDENDO3:28:434:57 12.1348bx
215.977XUNITED RUNNERS 3:28:534:58 12.1249bx
216.1123XAW(TC) EUROPE_1 AW EUROPE3:28:534:58 12.1250bx
217.288XEU TEAM GEH - EACEA 3:28:594:58 12.1247ax
218.771XUCB CLUB - CRAKERS UCB PHARMA3:28:594:58 12.1151bx
219.740XBELGIAN RUNAULT RUNNERS RENAULT BELGIË 3:29:024:58 12.1152bx
220.542XDATACAMP DATACAMP3:29:054:58 12.1153bx
221.737XQBE EUROPE QBE EUROPE3:29:064:58 12.1154bx
222.843XGEUKENS-LAMBAERTS 3:29:084:58 12.1148ax
223.694XNLMK EUROPE NLMK BELGIUM3:29:224:58 12.0955bx
224.748XSIEMENS SI RSS SIEMENS3:29:384:59 12.0856bx
225.957XTHE ROAD RUNNERS 3:29:384:59 12.0857bx
226.437XPRAYON PUURS PRAYON SA3:29:544:59 12.0658bx
227.861XLES FRÈRES BOURRÉS 3:29:574:59 12.0649ax
228.697XN-SIDE 2 N-SIDE S.A.3:30:044:59 12.0559bx
229.216XADECCO_ LA LORRAINE MORLA ADECCO ONSITE L3:30:064:59 12.0560bx
230.441XKBC DISCOVER 2 KBC3:30:114:59 12.0561bx
231.640XISABEL RUNNERS ISABEL NV3:30:195:00 12.0462bx
232.462XKBC 2 KBC3:30:195:00 12.0463bx
233.527COLRUYT BOUW TEAM COLRUYTGROUP3:30:285:00 12.0351bm
234.702XOBASI OBASI3:30:315:00 12.0364bx
235.368XAPB PLOEG 4 APB3:30:325:00 12.0365bx
236.691XNELSONRUNNERS - SUPERRUSH NELSON LABS NV3:30:355:00 12.0266bx
237.588XLES AA FIDUCRE3:30:445:00 12.0167bx
238.727PARTENA PROFESSIONAL PARTENA PROFESS3:30:455:00 12.0152bm
239.577XTEAM ENGIE AXIMA 1 ENGIE AXIMA3:30:505:00 12.0168bx
240.148XDUFFEL ATLETIEKCLUB RAF T DUFF3:30:555:00 12.0017cx
241.340XEU TEAM GEH-SASAKA 3:30:575:00 12.0050ax
242.1130SOPRA STERIA 1 SOPRA STERIA3:31:175:01 11.9853bm
243.608XHDI - TALANX 1 HDI GLOBAL3:31:195:01 11.9869bx
244.643XISS TEAM 1 ISS FACILITY SE3:31:225:01 11.9870bx
245.556XDB CORPORATE BANKING & FI DEUTSCHE BANK A3:31:345:01 11.9771bx
246.501XCELYAD N°1 CELYAD3:31:355:01 11.9772bx
247.308XEU TEAM GEH - RODENBACH R 3:31:365:01 11.9751ax
248.392XBEPHARBEL BEPHARBEL3:31:385:01 11.9673bx
249.704XOIP 2 OIP NV3:31:415:02 11.9674bx
250.764XSTATER BELGIUM STATER BELGIUM 3:31:525:02 11.9575bx
251.486XKBC HIGH INTEREST RUNNERS KBC3:31:525:02 11.9576bx
252.1110XWE ARE SPARTA! @2 3:32:025:02 11.9452ax
253.426HEIDELBERGCEMENT - TEAM 2 CBR3:32:065:02 11.9454bm
254.1024XMAGICS++ MATERIALISE3:32:125:02 11.9377bx
255.668XFLEET PKW ROAD RUNNERS MERCEDES-BENZ B3:32:315:03 11.9178bx
256.968XORANGE ARROW 3:32:345:03 11.9179bx
257.473KBC - THE RETURN OF GCI KBC3:32:375:03 11.9155bm
258.616ICSENSE3 ICSENSE3:32:395:03 11.9156bm
259.447XKBC - OUTCASTS KBC3:32:485:03 11.9080bx
260.427XHEIDELBERGCEMENT - TEAM 3 CBR3:32:495:03 11.9081bx
261.1121XAW(TC) EUROPE_3 AW EUROPE3:32:545:03 11.8982bx
262.567EASI 2 EASI3:32:595:03 11.8957bm
263.300XEU TEAM GEH – LOS SPEEDY 3:33:035:03 11.8853ax
264.637XENERGY@IPSOS IPSOS NV3:33:055:03 11.8883bx
265.892XRUN4FUN SPEEDTEAM 3:33:145:04 11.8754ax
266.698XNUMECA 1 NUMECA INTERNAT3:33:215:04 11.8784bx
267.1101THE CIBEES 3:33:245:04 11.8617am
268.636INTERNATIONAL POST CORPOR INTERNATIONAL P3:33:275:04 11.8658bm
269.442XKBC DISCOVER 1 KBC3:33:325:04 11.8685bx
270.475XKBC CLUSTER HALLE-ASSE 1 KBC3:33:355:04 11.8586bx
271.557XDB CORPORATE BANKING & FI DEUTSCHE BANK A3:33:365:04 11.8587bx
272.716XO DO IT ORANGE BELGIUM3:34:015:05 11.8388bx
273.435XPRAYON ONE TEAM PRAYON SA3:34:065:05 11.8389bx
274.104NTT BELGIUM TEAM 2 NTT BELGIUM3:34:095:05 11.8259bm
275.290XEU TEAM GEH - EDPS GIOVAN 3:34:145:05 11.8255ax
276.881XPWC 2 3:34:175:05 11.8156ax
277.164XDE VAN LOOYKENS 3:34:215:05 11.8157ax
278.359XTOO MUCH AIR AIR PRODUCTS3:34:385:06 11.8090bx
279.859XLES ÉPICOURSIENS 3:34:475:06 11.7958ax
280.491XKBC LEGS KBC3:34:485:06 11.7991bx
281.615ICSENSE2 ICSENSE3:34:505:06 11.7960bm
282.1041XRUNNERS HIGH FEDEX EXPRESS3:34:595:06 11.7892bx
283.865XLES MARATHONNERES 3:35:105:06 11.7759ax
284.647XJ&J ROCKETS JOHNSON & JOHNS3:35:315:07 11.7593bx
285.796XVOLVO CAR BELUX 2 VOLVO CAR BELUX3:35:335:07 11.7594bx
286.227EYLABA 3:35:345:07 11.7518am
287.835XFMO SEPARATISTS 3:35:355:07 11.7460ax
288.438PRAYON TAZOTEAM PRAYON SA3:35:355:07 11.7461bm
289.625XBEOBANK TEAM 4 BEOBANK3:35:395:07 11.7495bx
290.560XDE FUNKEEPERS DPG MEDIA NV3:35:395:07 11.7496bx
291.745XSIEMENS KAP SIEMENS3:35:485:07 11.7397bx
292.385XAXA TEAM AXA TEAM3:35:485:07 11.7398bx
293.362XMARADEUS AMADEUS BENELUX3:35:525:07 11.7399bx
294.378ATHLON ATHLETICS ATHLON CAR LEAS3:35:595:08 11.7262bm
295.338XEU TEAM GEH_IAMONFIRE 3:35:595:08 11.7261ax
296.1027XMEDICAL DEVICE R&D MATERIALISE3:36:005:08 11.72100bx
297.508CERTAM | LEXAM 2 CERTAM BEDRIJFS3:36:045:08 11.7263bm
298.1095XENSAI A 3:36:065:08 11.7262ax
299.818XVRT DIGITAAL PRODUCTIECEN VRT3:36:105:08 11.71101bx
300.261XDPB5 BANK J. VAN BRE3:36:145:08 11.71102bx
301.1096XENSAI B 3:36:165:08 11.7163ax
302.222XBOULET & PEKET 3:36:165:08 11.7164ax
303.502XCELYAD N°2 CELYAD3:36:235:08 11.70103bx
304.627XDERBIRUNNERS IMPERBEL3:36:285:08 11.70104bx
305.357XAIR FOR RUNNING AIR PRODUCTS3:36:335:08 11.69105bx
306.733XPRIMANED BELGIUM PRIMANED BELGIU3:36:395:09 11.69106bx
307.238NVISO'S FALCONS NVISO3:36:465:09 11.6864bm
308.533XCREDENDO MIX CREDENDO3:36:525:09 11.67107bx
309.471KBC - RUDI KBC3:36:575:09 11.6765bm
310.581XCORLUYT GROUP DATS 24.2 EOLY, COLRUYT G3:36:595:09 11.67108bx
311.1084XDAWASVLUGGEDAAN 3:37:065:09 11.6665ax
312.430PRAYON TO THE MOON PRAYON3:37:065:09 11.6666bm
313.314XEU TEAM GEH – THE AUTOMAT 3:37:095:09 11.6666ax
314.481XKBC THE GREEN TEAM KBC3:37:115:09 11.66109bx
315.410BE-LB-INSP 1 BRUXELLES ENVIR3:37:125:09 11.6667bm
316.1105XTHIS IS SPARTA@4 3:37:205:10 11.6567ax
317.1054XD.A.S. LIÈGE DAS3:37:225:10 11.65110bx
318.120XVOLHARDING 2 VOLHARDING3:37:245:10 11.6518cx
319.769XTUI BELGIUM TUI3:37:245:10 11.65111bx
320.367XAPB PLOEG 3 APB3:37:255:10 11.65112bx
321.958LES ORANGES PRESSÉS 3:37:265:10 11.6468bm
322.708XOLAF 4 OLAF (EUROPEAN 3:37:275:10 11.64113bx
323.1111XWE ARE SPARTA! @3 3:37:295:10 11.6468ax
324.101XBASF TORNADOS 3:37:395:10 11.6369ax
325.768XTREES&MOREBVBA TREES&MOREBVBA3:37:505:10 11.62114bx
326.639XIREX 2 IREX CONSULTING3:38:035:11 11.61115bx
327.345XFINANCE TORNADOS ACTISOC - BPOST3:38:035:11 11.61116bx
328.677XMIELE POWERDISK MIELE3:38:115:11 11.60117bx
329.480XKBC CEC RUNNERS KBC3:38:175:11 11.60118bx
330.652XKINEPRAKTIJK JORIS VAN BA KINEPRAKTIJK JO3:38:245:11 11.59119bx
331.299XEU TEAM GEH – LE GRAND HU 3:38:255:11 11.5970ax
332.664ONE MARS MARS BELGIUM NV3:38:345:11 11.5869bm
333.1033XTEAM 2 MATERIALISE3:38:345:11 11.58120bx
334.1043XX-RAY VISION FEDEX EXPRESS3:38:365:11 11.58121bx
335.488XKBC ZAVENTEAM KBC3:38:405:11 11.58122bx
336.381XATTENTIA 3 ATTENTIA NV3:38:415:11 11.58123bx
337.900XDELOITTE ITX 3:38:445:12 11.57124bx
338.235XVAT/CUSTOMS 1 3:38:485:12 11.5771ax
339.224XEY AUDIT ANTWERP 3:38:535:12 11.5772ax
340.658LEICA GEOSYSTEMS LEICA GEOSYSTEM3:38:545:12 11.5770bm
341.613HYDROMETAL TEAM HYDROMETAL3:38:555:12 11.5771bm
342.617IDA MEDIAFOUNDRY IDA MEDIAFOUNDR3:38:575:12 11.5672bm
343.883XQUANTO MANCA? 3:39:005:12 11.5673ax
344.1128XPWC CRM TECH TEAM 1 PWC TECHNOLOGY 3:39:065:12 11.56125bx
345.650XKEYRUS 2 KEYRUS3:39:135:12 11.55126bx
346.1120XAW(TC) EUROPE_4 AW EUROPE3:39:265:13 11.54127bx
347.550XDP-MIXTE 3 DEGROOF PETERCA3:39:285:13 11.54128bx
348.411XBE-LB-INSP2 BRUXELLES-ENVIR3:39:315:13 11.53129bx
349.565XON A LA GENETIQUE E. LUQUE SPRL3:39:315:13 11.53130bx
350.646XISS TEAM 4 'TAKEDA' ISS FACILITY SE3:39:335:13 11.53131bx
351.230XNIET SNEL WEL GEZELLIG 3:39:365:13 11.5374ax
352.989XGERANIUMS 3:39:365:13 11.5375ax
353.874NOH 1 3:39:385:13 11.5319am
354.730XPHINEST PHINEST3:39:405:13 11.53132bx
355.738TEAM QUINAPTIS QUINAPTIS BVBA3:39:405:13 11.5373bm
356.318XEU TEAM GEH – WE R 1 3:39:425:13 11.5276ax
357.609XHDI - TALANX 2 HDI GLOBAL3:39:435:13 11.52133bx
358.706XOLAF 2 OLAF (EUROPEAN 3:39:495:13 11.52134bx
359.292XEU TEAM GEH - GREEEEEEEEE 3:39:495:13 11.5277ax
360.712XOMP 3 OMP3:39:595:13 11.51135bx
361.478KBC CORPORATE ANTI-LOPEN KBC3:39:595:13 11.5174bm
362.884XRCJAB 3:40:105:14 11.5078ax
363.282XEU TEAM GEH – COMP F(ORMU 3:40:115:14 11.5079ax
364.638XIREX IREX CONSULTING3:40:125:14 11.50136bx
365.395XSPEEDY BUGS BIOBEST GROUP N3:40:125:14 11.50137bx
366.396XTHE FLYING BUMBLEBEES BIOBEST GROUP N3:40:125:14 11.50138bx
367.332XEU TEAM GEH RUNNING RESEA 3:40:135:14 11.5080ax
368.789VEOLIA04 VEOLIA NV-SA3:40:255:14 11.4975bm
369.719ORTEC BELGIUM B ORTEC3:40:285:14 11.4876bm
370.420XCANDRIAM TEAM 1 CANDRIAM3:40:295:14 11.48139bx
371.876XOCEAN RUNNERS 3:40:325:14 11.4881ax
372.444XKBC - THE UNSIGNED MACROS KBC3:40:425:14 11.47140bx
373.607XUNICEF-GSK5 GSK3:40:465:14 11.47141bx
374.760XSPORT VLAANDEREN SPORT VLAANDERE3:40:495:14 11.47142bx
375.493XKBC MOVES SMART KBC3:40:505:15 11.46143bx
376.787VEOLIA02 VEOLIA NV-SA3:40:515:15 11.4677bm
377.1040XPURPLE BULLETS FEDEX EXPRESS3:41:005:15 11.46144bx
378.494XKBC MET1 KBC3:41:055:15 11.45145bx
379.927XFORINGRUNNERS 3:41:155:15 11.44146bx
380.657THE LACO BULLETS LACO3:41:175:15 11.4478bm
381.129XDALTONS & CO ZONIËN ATHLETIC3:41:185:15 11.4419cx
382.601TEAM GLUO GLUO3:41:255:15 11.4379bm
383.289EU TEAM GEH – EDF21 3:41:315:15 11.4320am
384.1026XMCP TEAM MATERIALISE3:41:315:15 11.43147bx
385.506CENTRICA BUSINESS SOLUTIO CENTRICA BUSINE3:41:355:16 11.4380bm
386.944STORM RIDERS 3:41:375:16 11.4281bm
387.1131XSOPRA STERIA HAPPY FEET SOPRA STERIA3:41:385:16 11.42148bx
388.366XAPB PLOEG 2 APB3:41:455:16 11.42149bx
389.369XAPB PLOEG 5 APB3:41:525:16 11.41150bx
390.783XVAN DEN NESTE BOEKHOUDKAN VAN DEN NESTE3:42:005:16 11.40151bx
391.1134SCEPTICAL JOGGERS UNIT 3:42:085:16 11.4021am
392.689NELSONRUNNERS - MOEILIJKE NELSON LABS NV3:42:095:16 11.4082bm
393.259SKEYES 2 SKEYES3:42:115:16 11.4083bm
394.513XFIS 03 CLEAR2PAY NV3:42:125:16 11.39152bx
395.585FEXXONMOBIL DAMES EXXONMOBIL3:42:165:17 11.391bf
396.692XNELSONRUNNERS - TAT-OK NELSON LABS NV3:42:165:17 11.39153bx
397.185XADECCO_VAN MARCKE 2 ADECCO3:42:185:17 11.39154bx
398.153XRCB FAMILLE 1 3:42:275:17 11.3882ax
399.661LOVELD 1 LOVELD3:42:295:17 11.3884bm
400.629XINEOS NOH 1 INEOS SERVICES 3:42:315:17 11.38155bx
401.203XPLAN RUN TEAM PLAN INTERNATIO3:42:405:17 11.37156bx
402.518MAGAZIJN TECHNISCHE DIENS COLRUYT3:42:435:17 11.3785bm
403.752XNEWPHARMA 1 SMARTVALUE3:42:455:17 11.37157bx
404.126FRUN FOR RESC GIRLS RESC3:42:525:17 11.3612cf
405.474XKBC CLUSTER HALLE-ASSE 2 KBC3:42:535:17 11.36158bx
406.781XZ.ORG VOOR BEWEGING UPC KULEUVEN3:42:545:17 11.36159bx
407.653XCASUAL FRIDAY KPMG CENTRAL SE3:42:575:18 11.36160bx
408.654XGMS SOUNDS BETTER THAN PE KPMG CENTRAL SE3:42:595:18 11.35161bx
409.1051D.A.S. AREA MANAGERS DAS3:43:015:18 11.3586bm
410.674XMB TEAM 5 MERCEDES-BENZ B3:43:045:18 11.35162bx
411.610XHELON DREAMTEAM HELON ARCHITECT3:43:055:18 11.35163bx
412.713XOMP 4 OMP3:43:055:18 11.35164bx
413.934XFDS : "UN POUR TOUS, TOUS 3:43:075:18 11.35165bx
414.331XEU TEAM GEH REGIO FLYING 3:43:085:18 11.3583ax
415.102XINTERNATIONAL LONG DISTAN 3:43:135:18 11.3484ax
416.549XDP-FRONT DEGROOF PETERCA3:43:225:18 11.33166bx
417.965XTHE SURFING WAVRE 3:43:245:18 11.33167bx
418.551XDP-MIXTE1 DEGROOF PETERCA3:43:255:18 11.33168bx
419.260XSKEYES 3 SKEYES3:43:285:18 11.33169bx
420.623XBEOBANK TEAM 3 BEOBANK3:43:295:18 11.33170bx
421.786XALAIN VEOLIA NV-SA3:43:305:18 11.33171bx
422.628XINEOS OXIDE INEOS OXIDE3:43:335:18 11.33172bx
423.742XSAMSONITE SAMSONITE EUROP3:43:385:18 11.32173bx
424.351XAGORIA 1 AGORIA VZW3:43:415:19 11.32174bx
425.507CERTAM | LEXAM 1 CERTAM BEDRIJFS3:43:435:19 11.3287bm
426.1021XFINFAST MATERIALISE3:43:455:19 11.32175bx
427.1122AW(TC) EUROPE_2 AW EUROPE3:43:465:19 11.3188bm
428.466XKBC KANAALSUPPORT RUNNERS KBC3:43:505:19 11.31176bx
429.1082XCG LOGISTICS ENGINEERUN 3:43:515:19 11.3185ax
430.598XPROXIM'IP GEFCO BENELUX3:43:555:19 11.31177bx
431.428HEIDELBERGCEMENT - TEAM 4 CBR3:43:565:19 11.3189bm
432.434XPRAYON ENGIS PRAYON SA3:43:575:19 11.30178bx
433.951N°1 3:44:035:19 11.3090bm
434.416BUY WAY 2 BUY WAY PERSONA3:44:065:19 11.3091bm
435.832FFLUXYS BFF (BLESSED WITH 3:44:105:19 11.293af
436.953XTHE MORTGAGES WINNERS 3:44:125:19 11.29179bx
437.710OMP 1 OMP3:44:145:19 11.2992bm
438.270XJVB2 BANK J. VAN BRE3:44:165:19 11.29180bx
439.553DP-TAX DEGROOF PETERCA3:44:185:19 11.2993bm
440.497XKBC VILVOORDE EVEREST VO KBC3:44:195:19 11.29181bx
441.371XARAG 2 ARAG SE BRANCH 3:44:205:19 11.29182bx
442.659XCERTAM | LEXAM 3 LEXAM ADVOCATEN3:44:205:19 11.29183bx
443.699NUMECA 2 NUMECA INTERNAT3:44:235:20 11.2894bm
444.770XUCB CLUB - AIESECERS UCB PHARMA3:44:255:20 11.28184bx
445.592XFORMICA FORMICA3:44:315:20 11.28185bx
446.443XKBC - VALIDATION RUNNERS KBC3:44:425:20 11.27186bx
447.918X#NETELAND 3:44:515:20 11.26187bx
448.593XFOURCAST FOURCAST3:44:535:20 11.26188bx
449.500XKBC - ALLESVOORONZEGODMIC KBC3:44:575:20 11.26189bx
450.626DERBIBOYS IMPERBEL3:44:595:20 11.2595bm
451.580COLRUYT GROUP DATS 24 EOLY, COLRUYT G3:45:035:20 11.2596bm
452.813THE NIGHTRUNNERS PFIZER3:45:155:21 11.2497bm
453.1003XWE THAUGHT THEY SAY RUN 3:45:175:21 11.2486ax
454.605XUNICEF-GSK 2 GSK3:45:185:21 11.24190bx
455.1015XCM VMOB CHRISTELIJKE MU3:45:215:21 11.23191bx
456.784XVAN DER VALK HOTEL BRUSSE VAN DER VALK HO3:45:295:21 11.23192bx
457.285XEU TEAM GEH – COMP_GAZELL 3:45:305:21 11.2387ax
458.848XHUNGARIAN FOOT HUSSARS 3:45:345:21 11.2288ax
459.1023XINNOVATORS YOU CAN RELAY MATERIALISE3:45:345:21 11.22193bx
460.543XDCM DE CEUSTER MEST3:45:375:21 11.22194bx
461.820XVRT TALKSHOW 'VANDAAG' VRT (VLAAMSE RA3:45:385:21 11.22195bx
462.399XINEOS OXIDE 1 19823:45:385:21 11.22196bx
463.255XTHE SERVICE POINTS SATELLIC NV3:45:395:21 11.22197bx
464.912XRISK THE RUN 3:45:415:21 11.22198bx
465.695XTRAIN WORLD NMBS3:45:425:21 11.22199bx
466.539XCULIRUNNERS 2 CULINOR NV3:45:465:22 11.21200bx
467.182XCMAST LEGACY ADECCO3:45:465:22 11.21201bx
468.669IQ POWER MERCEDES-BENZ B3:45:495:22 11.2198bm
469.457XKBC - TEAM PROSECCO KBC3:45:515:22 11.21202bx
470.453XKBC LIVE 1 KBC3:45:515:22 11.21203bx
471.896XRUNNING CLUB WEZEMBEEK-OP 3:45:545:22 11.2189ax
472.1001XTULIPS 3:45:555:22 11.2190ax
473.995XQA 3:46:035:22 11.2091ax
474.499KBC - BLOOD, SWEAT AND BE KBC GROEP3:46:045:22 11.2099bm
475.720XBOOST P&V P&V ASSURANCES 3:46:055:22 11.20204bx
476.904XING CREFS BELGIUM 3:46:075:22 11.20205bx
477.991XKOEN'S DREAM TEAM 3:46:075:22 11.2092ax
478.1020XCM INTERSOC CM3:46:205:22 11.19206bx
479.374XASAHI KASEI 2 ASAHI KASEI BIO3:46:235:22 11.18207bx
480.959XING BC AALST 3:46:235:22 11.18208bx
481.880XPWC 1 3:46:245:22 11.1893ax
482.152XRCB FLAGADA 3:46:285:23 11.1894ax
483.401A SCHETS & PARTNERS CVBA A SCHETS EN PAR3:46:285:23 11.18100bm
484.887XRISK TORNADOS 3:46:285:23 11.1895ax
485.826XENSEMBLE EN CHEMIN 6 3:46:345:23 11.1796ax
486.111XATLEMO - GAZELLES 3:46:555:23 11.1697ax
487.564XRUN FOREST RUN DPG MEDIA NV3:46:565:23 11.16209bx
488.903XCYBER GREEN 3:46:575:23 11.16210bx
489.320XEU TEAM GEH EASME 2 3:46:585:23 11.1698ax
490.516XC-MAC GAAT HARD! C-MAC ELECTROMA3:47:025:23 11.15211bx
491.1059WHIRLPOOL I WHIRLPOOL BELUX3:47:045:23 11.15101bm
492.943XBASSE SAMBRE CONSEILS 2 3:47:065:23 11.15212bx
493.322EU TEAM GEH EASME 4 3:47:075:23 11.1522am
494.885XRCJAB 2 3:47:085:23 11.1599ax
495.1029XPRONTO PROTO MATERIALISE3:47:085:23 11.15213bx
496.1019XCOM OKRA CHRISTELIJKE MU3:47:165:24 11.14214bx
497.641XISABEL RUNNERS 2 ISABEL NV3:47:205:24 11.14215bx
498.910XLAST IN FIRST OUT 3:47:235:24 11.13216bx
499.1037XG3PC2 FEDEX EXPRESS3:47:245:24 11.13217bx
500.382XATTENTIA 4 ATTENTIA NV3:47:265:24 11.13218bx
DNF: abandon; DSQ: disqualifié; Vitesse en km/h
Bladzijde: [1] 2 3